Flag for Spain

Past Weather in Valladolid, Spain — Yesterday and Last 2 Weeks

Now
57 °F

Passing clouds.


Feels Like: 55 °F
Forecast: 68 / 39 °F
Wind: 8 mph from East

Location: Valladolid / Villanubla
Current Time: Sep 27, 2020 at 1:09:29 pm
Latest Report: Sep 27, 2020 at 12:30 pm
Visibility: N/A
Pressure30.09 "Hg(27.65 "Hg at 712m altitude)
Humidity: 63%
Dew Point: 45 °F
Location of ValladolidLocation

Past Weather in Valladolid — Graph

°F

Valladolid Temperature Yesterday

Maximum temperature yesterday: 68 °F (at 5:00 pm)
Minimum temperature yesterday: 43 °F (at 4:30 am)
Average temperature yesterday: 54 °F

High & Low Weather Summary for the Past Weeks

 TemperatureHumidityPressure
High90 °F (Sep 13, 4:30 pm)100% (Sep 15, 8:30 am)30.30 "Hg (Sep 15, 8:30 am)
Low41 °F (Sep 25, 8:30 am)15% (Sep 12, 6:00 pm)29.86 "Hg (Sep 19, 8:00 am)
Average63 °F68%30.08 "Hg
* Reported Sep 12 12:00 pm — Sep 27 12:00 pm, Valladolid. Weather by CustomWeather, © 2020

Note: Actual official high and low records may vary slightly from our data, if they occured in-between our weather recording intervals... More about our weather records

Valladolid Weather History for the Previous 24 Hours

Scroll right to see more
 ConditionsComfort  
Time TempWeatherWind HumidityBarometerVisibility
12:00 pm
Sun, Sep 27
55 °FPassing clouds.10 mph67%30.09 "HgN/A
11:30 am54 °FScattered clouds.10 mph72%30.09 "HgN/A
11:00 am54 °FBroken clouds.13 mph72%30.09 "HgN/A
10:30 am52 °FScattered clouds.12 mph77%30.07 "HgN/A
10:00 am52 °FScattered clouds.12 mph77%30.07 "HgN/A
9:30 am52 °FScattered clouds.8 mph82%30.04 "HgN/A
9:00 am50 °FScattered clouds.8 mph88%30.04 "HgN/A
8:30 am50 °FPartly sunny.7 mph94%30.04 "HgN/A
8:00 am52 °FOvercast.7 mph88%30.04 "HgN/A
7:30 am52 °FOvercast.5 mph88%30.01 "HgN/A
7:00 am52 °FOvercast.6 mph88%30.01 "HgN/A
6:30 am54 °FOvercast.9 mph88%30.01 "HgN/A
6:00 am54 °FPassing clouds.6 mph88%30.01 "HgN/A
5:30 am54 °FPassing clouds.6 mph88%30.01 "HgN/A
5:00 am54 °FPassing clouds.8 mph88%30.01 "HgN/A
4:30 am54 °FPassing clouds.10 mph88%30.01 "HgN/A
4:00 am54 °FClear.12 mph88%30.01 "Hg10 mi
3:30 am54 °FClear.12 mph88%30.01 "Hg10 mi
3:00 am54 °FPassing clouds.12 mph88%30.01 "HgN/A
2:30 am54 °FClear.13 mph88%30.01 "Hg10 mi
2:00 am54 °FClear.14 mph88%30.01 "Hg10 mi
1:30 am54 °FPassing clouds.14 mph88%30.04 "HgN/A
1:00 am54 °FClear.15 mph88%30.04 "Hg10 mi
12:30 am54 °FClear.14 mph88%30.04 "Hg10 mi
12:00 am54 °FClear.14 mph88%30.04 "Hg10 mi
11:30 pm
Sat, Sep 26
54 °FClear.15 mph88%30.04 "Hg10 mi
11:00 pm55 °FClear.16 mph82%30.04 "Hg10 mi
10:30 pm55 °FClear.17 mph82%30.04 "Hg10 mi
10:00 pm57 °FClear.12 mph72%30.04 "Hg10 mi
9:30 pm57 °FPassing clouds.9 mph72%30.04 "HgN/A
9:00 pm59 °FPassing clouds.10 mph68%30.04 "HgN/A
8:30 pm59 °FPassing clouds.16 mph68%30.04 "HgN/A
8:00 pm61 °FScattered clouds.18 mph63%30.04 "HgN/A
7:30 pm63 °FScattered clouds.20 mph56%30.07 "HgN/A
7:00 pm64 °FScattered clouds.17 mph46%30.04 "HgN/A
6:30 pm64 °FScattered clouds.16 mph46%30.04 "HgN/A
6:00 pm64 °FPartly sunny.17 mph46%30.07 "HgN/A
5:30 pm66 °FPartly sunny.17 mph43%30.07 "HgN/A
5:00 pm68 °FScattered clouds.16 mph40%30.09 "HgN/A
4:30 pm66 °FScattered clouds.18 mph43%30.09 "HgN/A
4:00 pm66 °FPassing clouds.14 mph43%30.09 "HgN/A
3:30 pm64 °FScattered clouds.13 mph43%30.12 "HgN/A
3:00 pm63 °FPartly sunny.13 mph45%30.12 "HgN/A
2:30 pm61 °FPartly sunny.14 mph48%30.15 "HgN/A
2:00 pm59 °FPartly sunny.12 mph51%30.15 "HgN/A
1:30 pm61 °FPassing clouds.12 mph48%30.18 "HgN/A
1:00 pm59 °FPassing clouds.13 mph48%30.18 "HgN/A
Weather by CustomWeather, © 2020

See weather overview